Погода в Сокуре

Россия / Новосибирская область     55°12′07″N   83°17′49″E
темп.,
°C
ветер,
м/с
пор.,
м/с
влажн.,
%
обл.,
%
осадки,
мм/ч
давл.,
гПа
погр.,
м
19 января, вт
вт1901:00−19зюз51198100 0.2 1016275
04:00−22юз5999100 0.0 1017180
07:00−24юз499992 0.0 1019162
10:00−25юз599973 0.0 1020178
13:00−21юз6119683 0.0 1021340
16:00−20зюз7119499 0.0 1021477
19:00−24зюз5109897 0.0 1023252
22:00−27з349975 0.0 102573
20 января, ср
ср2001:00−29з239937 0.0 102821
04:00−31з221000 0.0 102919
07:00−31юз12980 0.0 103119
10:00−32ююз11960 0.0 103219
13:00−26юв11880 0.0 1032129
16:00−25вюв129130 0.0 1032130
19:00−28в349157 0.0 103149
22:00−27в4888100 0.0 1030153
21 января, чт
чт2101:00−24в5886100 0.0 1027194
04:00−22вюв4891100 0.1 1024199
07:00−20вюв4698100 1.2 1021174
10:00−18ююв2398100 0.3 101975
13:00−15юз5895100 0.3 1019342
16:00−15юз4896100 0.0 1018305
19:00−16ююз4996100 0.1 1017252
22:00−16ююз3797100 0.0 1015176
22 января, пт
пт2201:00−16ююз3696100 0.0 1012190
04:00−14ююз4895100 0.6 1010303
07:00−15зюз4895100 1.3 1009336
10:00−21зюз4710085 0.0 1011128
13:00−20зюз479682 0.0 1013253
16:00−21зюз4696100 0.0 1013244
19:00−25юз3598100 0.0 101484
22:00−26юз479884 0.0 1015114
23 января, сб
сб2301:00−26юз489877 0.0 1016182
04:00−26юз4897100 0.0 1018231
07:00−25юз51096100 0.1 1019330
10:00−24юз61196100 0.1 1020445
13:00−22юз61095100 0.4 1020524
16:00−21юз4895100 0.3 1019577
19:00−22юз2699100 0.5 1020237
22:00−23з2499100 0.3 1021128